Temperature
10 10 10 11 12 13 13 13 13 14 16 14 13 14 14 15 16 16 16 17 17 17 17 17 18 18 18 19 19 19 19 19 18 17 16 16 16 15 14 14 14 13 13 13
9 10 12 13 13 13 12 12 12 13 14 14 13 13 14 14 15 15 16 16 17 17 17 17 17 17 18 18 18 19 19 18 18 17 17 16 16 15 14 14 14 13 13 13
10 11 12 13 12 11 11 11 11 12 12 12 12 12 14 16 16 16 16 16 16 17 17 17 17 17 17 17 18 18 18 18 18 17 16 16 15 15 14 14 13 13 13 13
10 11 11 11 11 11 11 12 12 11 10 10 11 10 13 15 16 16 16 17 17 17 17 17 17 17 17 17 17 17 17 18 17 17 16 16 16 15 15 14 13 13 13 12
10 11 11 10 11 11 11 11 11 10 9 8 9 9 11 14 15 16 16 17 17 17 17 17 16 16 16 17 17 17 17 17 17 16 16 16 16 15 15 14 13 12 12 12
11 11 11 11 11 12 11 10 9 9 8 7 9 9 11 15 16 17 17 18 17 17 17 16 16 16 16 16 16 16 16 16 16 15 15 15 15 15 15 14 13 12 12 12
9 10 11 11 10 10 10 8 7 8 7 7 11 11 12 16 17 17 16 17 17 16 16 16 15 15 15 15 15 15 16 16 15 15 14 14 13 14 15 15 13 12 11 11
8 9 10 10 10 9 9 8 7 8 9 10 13 12 13 16 17 17 17 17 16 16 15 15 15 14 14 14 14 14 15 14 14 14 13 12 12 13 13 13 13 12 11 11
9 9 11 11 10 10 8 8 9 8 8 7 9 12 14 15 15 16 16 16 16 15 15 14 14 14 13 13 14 14 14 13 13 12 12 11 11 12 12 12 11 11 11 10
10 9 10 10 10 9 10 9 8 6 6 7 9 11 13 15 15 15 15 15 15 15 14 14 13 13 13 13 13 13 13 13 12 11 11 11 11 11 11 11 11 11 10 10
10 8 9 9 8 8 8 8 8 7 7 7 7 10 15 14 14 14 13 14 14 14 13 13 12 12 12 12 12 12 12 11 11 10 10 10 10 10 10 10 10 10 9 9
10 8 7 8 10 10 9 8 7 6 6 7 7 9 14 14 14 13 13 13 13 13 12 12 11 11 11 11 11 11 11 10 10 9 9 9 9 9 10 9 9 8 8 7
9 7 6 8 9 9 9 9 9 7 7 6 6 8 13 13 13 13 12 12 11 11 11 11 10 10 10 9 9 9 9 9 9 8 8 8 8 9 9 9 8 7 7 7
10 7 6 8 8 8 8 8 9 7 6 6 7 8 10 11 11 11 11 10 10 10 10 9 9 9 8 8 8 8 8 8 7 7 7 7 7 7 8 7 6 6 6 6
9 7 7 8 9 9 8 8 8 8 7 7 7 8 9 10 10 9 9 8 8 8 8 8 8 8 7 7 7 7 6 6 6 6 6 6 6 6 6 5 5 5 5 5
8 7 7 7 9 9 9 9 9 9 9 8 8 8 10 10 9 9 8 7 7 7 7 7 7 6 6 6 6 5 5 5 4 4 4 4 4 4 4 5 5 5 5 4
7 7 7 7 10 10 9 10 10 9 9 9 8 9 9 9 8 7 6 6 6 6 6 6 5 5 4 4 4 4 3 3 3 2 2 2 3 4 4 4 4 4 4 4
8 8 7 7 8 8 11 11 10 9 9 9 9 9 9 8 7 5 4 4 4 5 4 4 4 3 3 3 3 2 2 1 1 1 1 2 3 3 4 4 4 3 3 3
8 8 7 7 8 9 11 11 10 9 9 9 8 8 8 8 7 5 3 3 3 3 3 3 2 2 1 1 1 0 -0 -0 -0 -0 1 2 3 3 3 3 3 2 2 2
8 7 7 7 7 8 11 11 11 9 9 9 8 8 7 7 7 4 2 1 1 1 1 1 1 0 -0 -0 -1 -1 -1 -1 -0 0 1 2 3 3 3 2 2 2 1 1
7 7 7 7 7 9 12 11 11 9 10 9 8 7 6 5 4 2 1 0 0 0 -0 -0 -0 -1 -1 -1 -1 -1 -1 -1 0 1 1 2 2 2 2 2 1 1 0 0
8 7 7 7 7 8 12 11 10 10 9 8 7 6 5 3 2 1 1 -0 -1 -1 -1 -1 -1 -2 -2 -1 -1 -1 -0 0 1 1 2 2 2 1 1 1 0 0 -0 -1
10 9 9 9 9 12 12 11 10 8 7 7 6 5 4 3 1 1 0 -0 -1 -1 -1 -1 -1 -1 -1 -1 0 1 1 1 2 2 2 1 1 1 0 0 -0 -1 -1 -1
11 11 10 10 10 12 11 10 8 7 6 5 5 4 4 3 1 1 0 -0 -0 -1 -1 -1 -1 -1 -0 0 1 2 1 1 2 2 1 1 0 0 -0 -1 -1 -1 -2 -2
11 10 9 10 11 11 9 8 7 6 5 4 4 4 3 3 1 1 0 -0 -0 -1 -0 0 0 1 1 1 1 1 1 1 1 1 1 0 -0 -0 -1 -1 -2 -2 -3 -4
10 10 10 10 10 10 8 7 6 5 4 3 3 2 2 2 1 1 0 -0 -0 0 1 1 1 2 1 1 1 1 1 1 1 1 0 -0 -1 -1 -2 -2 -3 -3 -4 -5
Wind_Speed
7 5 8 11 14 13 8 8 9 8 8 7 11 15 14 14 16 16 15 14 14 14 13 12 12 11 11 11 11 11 12 13 10 9 10 9 8 5 5 5 8 12 13 14
6 9 10 9 9 10 10 10 10 10 8 9 13 20 18 20 21 20 18 17 16 16 15 14 13 13 13 12 11 11 10 12 12 10 10 7 6 5 4 5 6 10 12 13
8 2 7 10 7 7 9 9 9 10 12 10 12 14 14 15 19 19 18 18 16 16 15 14 13 14 13 13 12 10 11 11 12 11 9 8 7 5 4 5 5 7 11 12
8 4 2 5 8 8 8 5 6 7 6 5 6 8 8 9 8 10 12 13 13 14 13 12 12 12 12 13 12 12 11 11 11 14 14 15 10 7 6 6 6 8 9 10
7 6 7 7 8 8 2 5 4 6 7 7 6 8 11 9 11 10 11 12 11 10 10 9 9 9 9 9 10 11 11 10 11 14 16 15 10 7 9 10 11 9 8 9
4 4 5 7 6 5 2 0 6 6 4 7 8 10 10 4 5 2 3 5 6 6 5 5 5 6 7 7 7 8 10 10 11 13 15 14 14 14 16 14 13 10 8 8
6 7 5 3 5 4 4 3 3 4 5 9 10 9 10 6 4 3 4 3 2 3 3 4 4 4 5 6 6 7 8 9 11 13 14 13 14 16 18 17 15 14 11 10
8 7 13 9 7 6 8 5 4 4 4 4 4 8 8 7 6 6 6 4 4 5 4 4 5 5 5 6 6 7 8 8 10 12 12 12 14 13 12 13 13 13 11 10
7 3 10 9 8 5 7 7 4 4 6 6 7 8 9 11 10 8 7 6 7 7 5 4 4 5 6 6 6 7 9 9 11 11 12 13 13 13 13 13 12 11 11 12
2 4 7 6 6 7 5 4 4 4 3 6 9 8 5 5 7 5 3 4 6 5 4 3 2 4 5 6 5 5 8 9 11 12 12 12 12 13 14 14 14 13 14 13
2 3 5 6 8 10 8 4 5 4 5 4 6 6 4 7 8 7 7 7 5 3 3 2 2 3 4 5 3 3 6 9 11 12 13 14 13 14 14 14 14 14 13 14
6 3 4 7 8 10 10 9 8 5 6 6 6 9 6 6 6 7 9 9 8 6 4 2 2 2 3 3 1 3 6 10 12 14 15 14 14 14 15 15 14 14 14 13
8 4 3 4 5 7 6 10 12 8 5 7 8 11 5 9 13 12 13 13 11 9 7 3 2 0 0 1 1 4 9 12 14 15 15 14 14 14 15 16 15 14 13 12
7 4 5 2 1 2 5 8 10 10 10 11 16 24 23 23 22 18 15 14 12 10 8 4 2 2 3 3 3 7 11 13 14 14 14 14 14 15 16 15 14 13 13 12
3 3 6 10 12 10 12 13 13 16 17 16 20 26 30 24 20 17 14 12 12 10 8 4 3 5 6 7 8 11 12 12 13 13 14 14 14 15 16 15 14 13 12 12
4 3 5 8 13 14 17 17 16 16 17 19 23 25 19 17 14 12 11 11 10 7 3 3 5 7 8 9 10 11 11 11 12 13 14 15 16 16 16 15 14 14 12 11
6 4 3 4 7 9 9 8 8 8 9 12 13 13 17 17 13 10 10 9 7 4 1 6 8 8 8 9 11 11 11 11 13 14 15 15 17 17 16 15 14 13 11 9
5 4 2 5 7 4 2 5 4 7 10 10 11 13 13 11 5 7 10 9 5 3 5 8 9 9 10 10 11 11 12 13 14 14 15 15 16 16 15 14 13 11 8 7
7 4 2 3 5 8 4 3 2 4 6 3 6 11 12 10 2 6 12 11 9 9 10 10 11 11 11 11 12 14 14 14 14 15 15 15 15 15 14 13 11 8 7 6
8 6 4 3 4 4 1 2 3 2 4 2 4 8 9 9 4 5 9 10 11 12 11 11 12 12 12 12 13 15 15 15 15 15 14 14 14 14 13 11 9 7 6 5
6 6 7 7 5 7 4 1 1 3 4 4 4 5 4 3 3 4 8 10 11 11 12 12 13 12 12 12 13 15 15 14 14 14 15 14 13 12 11 9 7 6 5 3
8 6 6 5 6 7 2 2 2 4 4 4 3 2 4 6 7 8 9 10 10 11 12 12 12 13 12 12 14 15 15 14 14 14 15 13 12 10 9 8 6 5 4 3
7 7 5 6 7 4 1 1 2 3 4 4 3 3 7 8 8 9 9 9 10 11 11 11 13 14 13 11 12 16 14 13 14 14 14 12 11 9 8 7 6 4 4 4
4 4 3 4 7 5 2 4 5 5 4 4 2 4 7 9 9 9 9 9 10 10 11 11 13 15 14 12 12 13 12 12 14 14 11 10 9 8 7 6 5 4 4 5
2 4 4 6 7 3 4 4 4 5 5 5 6 7 9 11 10 10 10 9 9 10 10 11 12 14 14 13 12 11 11 12 13 12 9 8 7 6 6 5 4 5 4 4
5 6 5 3 1 2 3 4 5 5 6 6 8 9 9 10 11 11 10 9 9 11 11 12 13 14 13 12 12 10 9 10 12 10 8 6 5 5 5 4 3 3 2 2
Wind_Direction
172 190 203 203 213 248 305 311 298 297 322 311 276 274 270 265 261 255 248 245 245 246 248 246 244 244 243 234 221 207 187 183 182 178 175 178 182 169 150 150 145 143 140 138
164 227 227 230 220 237 270 279 281 290 298 300 285 279 271 258 251 246 245 243 242 244 242 240 237 236 239 241 232 217 201 185 183 180 174 167 151 124 106 112 116 127 132 133
192 184 225 229 225 233 249 257 272 289 316 293 281 283 258 250 235 234 236 239 242 243 244 243 238 234 232 234 235 225 211 196 182 166 146 125 100 85 91 102 103 109 124 130
225 221 193 210 222 223 251 262 274 290 295 289 309 296 273 274 266 230 220 223 232 237 239 240 242 241 234 229 226 224 214 200 180 162 157 159 166 162 161 141 125 119 123 130
209 211 204 219 228 222 243 34 337 296 291 292 250 254 275 226 244 236 223 217 223 229 232 237 239 243 246 240 227 216 208 197 174 164 162 166 164 140 132 130 131 128 130 132
219 177 213 225 234 243 202 351 272 252 269 267 223 219 276 245 250 262 236 219 218 226 235 247 257 258 255 252 241 215 196 186 167 161 161 165 159 147 146 148 148 143 142 138
221 215 205 218 191 194 190 197 248 210 221 248 235 228 252 267 298 297 287 274 295 303 302 300 295 289 278 262 238 210 190 176 161 158 161 165 157 154 157 157 155 151 151 148
193 218 196 195 203 178 189 200 229 258 267 296 274 246 257 252 243 229 230 237 265 281 291 306 311 304 286 270 242 202 187 172 161 159 160 156 148 153 157 155 155 154 152 148
190 203 150 174 196 187 176 215 275 318 303 281 257 265 281 252 247 231 219 217 232 239 249 271 296 308 307 290 253 205 185 170 163 158 148 145 145 146 147 147 145 144 143 143
188 172 157 147 166 224 234 192 190 200 263 277 273 257 256 347 3 359 310 254 241 234 229 238 282 311 304 294 269 211 183 168 157 148 142 141 137 138 140 142 143 143 143 141
175 158 154 159 200 198 202 216 210 224 249 266 285 265 329 352 349 342 330 319 304 292 290 325 334 328 312 302 276 202 170 150 139 132 128 129 130 133 136 138 138 139 138 136
178 167 222 219 213 207 198 202 195 211 237 231 265 271 286 307 339 342 328 319 308 294 280 306 318 330 333 317 280 163 141 131 125 122 123 125 128 131 133 133 133 134 132 129
165 171 219 214 210 197 220 222 219 227 262 248 253 266 281 315 318 318 312 305 297 288 279 281 282 244 189 295 260 128 120 117 117 120 123 127 131 132 132 131 130 129 125 120
161 185 228 249 126 190 225 235 230 227 243 254 250 269 285 294 299 304 303 295 287 282 275 264 241 155 141 135 113 107 107 110 115 120 126 131 133 132 129 126 124 120 117 113
159 223 242 267 279 272 256 250 241 238 244 256 270 277 286 295 301 303 302 299 293 278 270 237 170 124 117 108 97 99 103 108 117 123 128 129 127 124 121 118 115 112 109 106
180 247 269 266 260 258 260 256 251 252 253 257 271 279 286 299 305 312 316 310 303 291 276 156 124 116 114 110 107 106 107 112 119 125 126 124 123 119 116 113 110 106 103 101
183 214 258 274 292 292 267 244 233 245 257 265 275 288 306 309 319 334 332 326 316 314 12 115 112 109 106 107 111 112 113 115 119 121 122 121 119 116 113 112 108 106 105 104
192 205 243 291 308 268 218 148 197 256 270 268 280 298 310 314 334 17 4 351 348 20 92 99 99 97 98 102 106 108 112 115 117 117 117 115 114 111 109 108 105 104 106 108
193 194 237 274 285 278 268 172 213 266 279 252 290 309 322 321 300 43 21 26 39 62 81 88 93 98 100 103 109 111 111 112 113 114 113 113 112 110 108 106 104 105 105 101
192 189 224 254 281 274 353 114 156 223 266 203 302 319 332 342 353 14 23 44 56 65 77 86 92 96 99 102 108 112 112 111 111 111 110 109 108 108 106 105 102 98 100 104
177 194 217 234 253 272 307 342 282 284 306 336 337 334 351 39 58 59 60 67 73 78 84 91 96 97 100 105 109 110 109 109 111 110 106 102 100 101 101 99 96 94 90 86
180 187 197 201 224 254 300 336 304 289 321 342 2 32 87 102 94 85 81 83 88 92 96 100 103 102 101 104 110 110 109 111 109 105 101 97 94 95 96 94 87 84 76 57
189 195 192 207 230 266 325 288 7 9 336 1 23 96 119 116 106 98 93 91 92 97 102 106 109 108 107 108 114 112 112 112 108 102 99 96 92 89 90 89 80 66 60 53
197 174 209 260 267 280 17 69 54 43 29 26 56 114 124 119 115 107 100 96 96 98 101 106 107 106 103 103 104 107 109 108 104 100 98 96 95 89 81 78 67 57 57 49
273 167 214 252 269 259 91 68 68 69 69 72 80 96 115 120 118 114 109 105 103 102 99 102 105 105 103 102 99 98 102 104 100 96 93 89 86 89 82 77 73 70 77 77
229 213 218 244 18 39 86 85 91 98 95 98 101 98 103 114 118 114 109 106 104 102 102 102 102 103 101 98 94 89 92 99 101 97 89 84 81 74 68 64 59 73 72 35
Height
1468 1472 1472 1471 1471 1469 1467 1470 1470 1464 1460 1463 1462 1459 1456 1454 1452 1450 1449 1449 1449 1449 1450 1451 1452 1454 1456 1459 1461 1464 1466 1468 1472 1475 1477 1480 1483 1486 1490 1493 1495 1498 1500 1503
1470 1470 1466 1464 1466 1468 1470 1473 1472 1468 1464 1464 1461 1454 1449 1444 1440 1439 1440 1440 1440 1441 1442 1444 1445 1447 1448 1450 1453 1456 1459 1461 1464 1467 1470 1474 1477 1481 1484 1487 1489 1492 1495 1498
1464 1464 1463 1464 1467 1471 1473 1475 1473 1472 1469 1466 1464 1451 1438 1426 1426 1428 1430 1431 1432 1433 1434 1436 1438 1439 1441 1443 1446 1449 1452 1455 1458 1461 1464 1468 1471 1474 1477 1480 1483 1486 1490 1494
1464 1462 1464 1466 1468 1471 1474 1469 1470 1473 1476 1472 1466 1464 1436 1426 1422 1420 1421 1422 1423 1425 1427 1429 1431 1433 1434 1436 1439 1442 1446 1449 1452 1454 1455 1459 1462 1465 1468 1472 1476 1481 1485 1490
1462 1462 1465 1468 1468 1469 1470 1471 1474 1475 1477 1478 1469 1470 1437 1423 1421 1416 1415 1416 1418 1420 1422 1423 1425 1426 1428 1430 1432 1435 1438 1442 1444 1446 1448 1453 1457 1460 1463 1467 1471 1476 1481 1485
1459 1461 1463 1466 1466 1468 1469 1475 1477 1476 1479 1481 1463 1461 1438 1420 1413 1410 1410 1412 1414 1416 1418 1419 1420 1421 1422 1424 1426 1428 1430 1434 1437 1439 1442 1446 1450 1453 1456 1460 1465 1470 1475 1480
1462 1462 1463 1465 1468 1470 1473 1480 1482 1478 1479 1471 1450 1445 1430 1412 1408 1408 1409 1410 1412 1414 1416 1417 1417 1418 1418 1419 1420 1422 1424 1427 1430 1434 1437 1441 1444 1447 1451 1455 1459 1464 1469 1474
1463 1461 1460 1463 1466 1469 1472 1476 1480 1476 1465 1451 1438 1435 1419 1406 1403 1404 1406 1408 1410 1412 1413 1414 1415 1415 1415 1415 1415 1416 1418 1421 1425 1429 1433 1437 1440 1443 1446 1451 1455 1460 1465 1470
1456 1457 1455 1459 1464 1466 1471 1474 1471 1474 1471 1470 1450 1430 1414 1403 1401 1401 1403 1405 1407 1409 1410 1411 1411 1412 1411 1411 1411 1412 1414 1416 1420 1424 1429 1432 1436 1439 1442 1447 1452 1457 1462 1467
1451 1457 1457 1460 1464 1467 1466 1468 1473 1480 1482 1471 1446 1430 1418 1405 1403 1402 1402 1403 1404 1405 1406 1407 1407 1407 1407 1407 1407 1407 1409 1412 1415 1420 1424 1428 1431 1435 1439 1444 1448 1454 1459 1464
1452 1459 1460 1462 1464 1464 1468 1470 1469 1470 1468 1470 1456 1432 1404 1405 1404 1405 1405 1403 1403 1403 1403 1403 1403 1403 1402 1402 1402 1403 1405 1408 1412 1416 1419 1424 1428 1432 1437 1441 1446 1452 1457 1462
1452 1458 1461 1459 1455 1456 1460 1463 1467 1475 1469 1462 1458 1433 1408 1405 1403 1404 1404 1403 1401 1400 1399 1399 1398 1398 1398 1398 1398 1400 1402 1405 1408 1412 1416 1421 1425 1430 1434 1439 1445 1451 1456 1462
1451 1459 1464 1457 1458 1455 1456 1456 1458 1463 1464 1460 1454 1430 1406 1404 1403 1404 1403 1401 1399 1397 1395 1394 1394 1393 1394 1394 1396 1397 1399 1402 1405 1409 1414 1419 1423 1428 1433 1438 1445 1451 1456 1462
1449 1456 1460 1453 1452 1453 1456 1454 1453 1458 1459 1451 1440 1421 1409 1407 1403 1401 1399 1396 1393 1391 1390 1389 1389 1389 1389 1391 1394 1396 1397 1400 1403 1408 1413 1418 1423 1427 1432 1438 1445 1451 1457 1462
1450 1454 1453 1450 1447 1446 1447 1446 1446 1448 1447 1443 1429 1420 1408 1404 1401 1397 1394 1390 1388 1386 1385 1385 1385 1385 1387 1389 1393 1395 1397 1400 1404 1409 1413 1417 1422 1427 1433 1439 1446 1452 1458 1462
1450 1452 1449 1447 1440 1438 1436 1433 1433 1433 1432 1429 1423 1414 1405 1401 1397 1393 1390 1387 1384 1382 1381 1382 1383 1384 1386 1389 1392 1395 1398 1402 1406 1410 1414 1418 1422 1428 1434 1441 1448 1453 1459 1463
1448 1449 1450 1445 1433 1432 1431 1422 1424 1425 1422 1422 1417 1410 1403 1398 1395 1392 1389 1385 1383 1381 1381 1382 1383 1385 1387 1390 1393 1396 1400 1404 1408 1412 1415 1419 1424 1430 1437 1444 1450 1455 1460 1463
1444 1446 1448 1445 1440 1435 1422 1416 1418 1419 1416 1414 1412 1407 1402 1398 1395 1393 1390 1386 1383 1382 1382 1383 1384 1387 1389 1392 1395 1399 1403 1406 1410 1414 1418 1422 1428 1434 1440 1447 1452 1457 1460 1463
1441 1444 1447 1445 1440 1429 1416 1415 1416 1417 1413 1410 1409 1405 1400 1396 1393 1393 1392 1388 1385 1384 1384 1385 1387 1389 1392 1395 1398 1401 1405 1409 1413 1417 1422 1427 1433 1438 1444 1449 1454 1457 1460 1462
1438 1443 1447 1444 1440 1432 1416 1413 1412 1416 1411 1408 1407 1403 1400 1396 1394 1398 1396 1392 1389 1388 1388 1389 1390 1392 1395 1399 1402 1405 1409 1413 1417 1422 1426 1432 1438 1443 1448 1452 1455 1458 1460 1461
1438 1441 1442 1441 1438 1426 1412 1410 1411 1415 1411 1406 1404 1403 1401 1400 1402 1402 1398 1396 1394 1392 1392 1393 1394 1397 1400 1403 1406 1409 1413 1418 1422 1427 1432 1437 1442 1447 1450 1454 1456 1458 1459 1460
1429 1433 1434 1434 1434 1427 1409 1409 1411 1410 1405 1404 1403 1402 1401 1401 1402 1402 1400 1399 1398 1398 1398 1399 1400 1402 1406 1409 1411 1414 1418 1423 1428 1433 1437 1442 1446 1449 1452 1455 1456 1457 1458 1458
1419 1420 1421 1423 1421 1410 1407 1407 1407 1405 1404 1403 1402 1401 1401 1402 1403 1403 1403 1403 1404 1404 1404 1405 1406 1408 1412 1416 1419 1420 1425 1430 1434 1438 1442 1446 1449 1451 1454 1455 1456 1456 1456 1456
1411 1411 1414 1414 1409 1406 1406 1405 1405 1404 1402 1401 1401 1401 1401 1402 1403 1405 1406 1407 1408 1409 1410 1411 1413 1414 1418 1422 1426 1428 1432 1436 1440 1442 1445 1448 1451 1453 1454 1455 1455 1455 1455 1454
1410 1411 1413 1411 1407 1404 1405 1405 1404 1403 1402 1401 1400 1401 1402 1403 1405 1406 1408 1410 1412 1413 1415 1417 1418 1420 1424 1428 1431 1435 1438 1441 1443 1446 1448 1450 1452 1453 1454 1455 1454 1454 1453 1452
1408 1408 1410 1408 1405 1405 1405 1404 1403 1402 1402 1401 1401 1402 1404 1405 1406 1408 1410 1413 1415 1416 1419 1421 1423 1426 1429 1432 1436 1439 1443 1445 1447 1448 1450 1452 1453 1454 1454 1454 1453 1452 1451 1450